Regional Weather Roundup
Issued by NWS State College, PA

Home | Current Version | Previous Version | Graphics & Text | Print | Product List | Glossary Off
Versions: 1 2 3 4 5 6 7 8 9 10 11 12 13 14 15 16 17 18 19 20 21 22 23 24 25 26 27 28 29 30 31 32 33 34 35 36 37 38 39 40 41 42 43 44 45 46 47 48 49 50

000
ASUS41 KCTP 281510
RWRCTP

REGIONAL WEATHER ROUNDUP
NATIONAL WEATHER SERVICE STATE COLLEGE PA
1100 AM EDT WED SEP 28 2016

Note: "fair" indicates few or no clouds below 12,000 feet with no
significant weather and/or obstructions to visibility.

* = STATION THAT DOES NOT REPORT PRECIPITATION /E.G. RAIN...SNOW...ETC/
    THUNDER OR FOG.

PAZ002>004-007>009-013>016-020>023-029>032-281600-
WESTERN PENNSYLVANIA

CITY           SKY/WX    TMP DP  RH WIND       PRES   REMARKS
ERIE           MOSUNNY   65  48  54 SE13      29.96R
MEADVILLE      CLOUDY    59  45  59 CALM      29.98R
FRANKLIN*        N/A     61  48  63 E6        30.00S
NEW CASTLE     FAIR      63  49  60 E5        29.97S
BEAVER COUNTY  SUNNY     64  48  55 SE9       29.96R
BUTLER*        SUNNY     64  50  59 SE8G16    30.00S
PITTSBURGH INT MOSUNNY   67  46  47 SE8       29.96R
PITTSBURGH     SUNNY     65  48  54 E9        29.96R
INDIANA*       MOSUNNY   66  54  63 SE10      30.01F
LATROBE        NOT AVBL
WASHINGTON CO* SUNNY     66  48  52 SE5       29.96S
$$

PAZ004>006-010>012-017>019-024>028-033>037-041-042-045-046-049>053-281600-
CENTRAL PENNSYLVANIA

CITY           SKY/WX    TMP DP  RH WIND       PRES   REMARKS
BRADFORD       PTSUNNY   62  51  67 SE15G24   30.04R
DUBOIS         SUNNY     63  50  62 SE13G20   30.01S
CLEARFIELD     PTSUNNY   62  53  72 E6        30.05R
JOHNSTOWN      MOSUNNY   61  52  72 SE12G25   30.01S
ALTOONA        CLOUDY    62  55  77 E8        30.04S
STATE COLLEGE  MOSUNNY   63  54  72 NE5       30.06S
WILLIAMSPORT   MOSUNNY   63  53  70 CALM      30.06R
SELINSGROVE    CLOUDY    62  55  77 CALM      30.08R
FT INDIANTOWN  CLOUDY    66  53  62 VRB5      30.07R
CAPITAL CITY   SUNNY     69  56  62 VRB5      30.05S
HARRISBURG     MOSUNNY   71  59  65 MISG      30.05R
YORK           PTSUNNY   69  53  56 SE13G24   30.04S
$$

PAZ038>040-043-044-047-048-054-055-060>062-067>071-281600-
EASTERN PENNSYLVANIA

CITY           SKY/WX    TMP DP  RH WIND       PRES   REMARKS
SCRANTON       SUNNY     70  49  47 E8G18     30.07F
MOUNT POCONO   CLOUDY    61  53  75 SE16G23   30.12R
ALLENTOWN      CLOUDY    65  53  65 E8        30.08R
QUAKERTOWN*    CLOUDY    64  57  77 E10       30.09S
READING        CLOUDY    63  53  70 CALM      30.06R
LANCASTER      MOSUNNY   68  57  68 E12       30.05S
COATESVILLE    CLOUDY    61  57  88 E8        30.06F
POTTSTOWN      CLOUDY    64  56  75 E5        30.08S
BLUE BELL      CLOUDY    63  59  88 E7        30.06S
DOYLESTOWN     CLOUDY    67  60  78 VRB3      30.08R
WILLOW GROVE   NOT AVBL
NORTH PHILA    CLOUDY    69  62  78 E10       30.09R
PHILADELPHIA   LGT RAIN  67  62  84 E12       30.05S
$$



USA.gov is the U.S. government's official web portal to all federal, state and local government web resources and services.